Location: Elmsmere
(40.9284°N, 73.8207°W)
Time: 05:19:04
(UTC+00:00)

BREEZE-M R/B - Pass Details

Date: 29 October 2020
Orbit: 309 x 4522 km, 49.7° (Epoch: 29 November)

Event Time Altitude Azimuth Distance (km) Brightness Sun altitude
Rises 22:17:13 0° 296° (WNW) 2,300 6.9 -5.0°
Reaches altitude 10° 22:19:03 10° 310° (NW) 1,640 5.8 -5.3°
Maximum altitude 22:22:09 27° 12° (NNE) 1,244 4.4 -5.9°
Drops below altitude 10° 22:27:25 10° 70° (ENE) 2,885 5.8 -6.9°
Enters shadow 22:28:13 - 72° (ENE) 3,195 6.0 -7.0°
